When you browse on this site, cookies collect data to enhance your experience and personalize the content and advertising you see.
Visit our Privacy Policy to learn more. By continuing to use the site, you agree to this use of cookies and data.

Météo par heure à Tysaashvan'

Ce jour, 15 Juillet, Mercredi

Heure Température Précipitation Vent Pression Humidité
00:00 +14°C° 0 mm 1 m/s 752 mmHg 83%
01:00 +14°C° 0 mm 1 m/s 753 mmHg 85%
02:00 +13°C° 0 mm 1 m/s 752 mmHg 86%
03:00 +13°C° 0 mm 1 m/s 752 mmHg 87%
04:00 +13°C° 0 mm 1 m/s 752 mmHg 88%
05:00 +14°C° 0 mm 1 m/s 752 mmHg 83%
06:00 +16°C° 0 mm 1 m/s 752 mmHg 78%
07:00 +19°C° 0 mm 1 m/s 752 mmHg 71%
08:00 +20°C° 0 mm 1 m/s 752 mmHg 67%
09:00 +22°C° 0 mm 1 m/s 751 mmHg 63%
10:00 +23°C° 0 mm 1 m/s 751 mmHg 59%
11:00 +24°C° 0 mm 1 m/s 751 mmHg 56%
12:00 +25°C° 0 mm 1 m/s 751 mmHg 53%
13:00 +26°C° 0 mm 1 m/s 751 mmHg 51%
14:00 +25°C° 0 mm 1 m/s 751 mmHg 52%
15:00 +25°C° 0 mm 1 m/s 751 mmHg 53%
16:00 +25°C° 0 mm 1 m/s 750 mmHg 54%
17:00 +24°C° 0 mm 1 m/s 751 mmHg 60%
18:00 +22°C° 0 mm 1 m/s 751 mmHg 65%
19:00 +21°C° 0 mm 1 m/s 751 mmHg 71%
20:00 +20°C° 0 mm 1 m/s 751 mmHg 73%
21:00 +19°C° 0 mm 1 m/s 751 mmHg 75%
22:00 +18°C° 0 mm 1 m/s 751 mmHg 78%
23:00 +16°C° 0 mm 1 m/s 751 mmHg 80%

Demain, 16 Juillet, Jeudi

Heure Température Précipitation Vent Pression Humidité
00:00 +16°C° 0 mm 1 m/s 751 mmHg 82%
01:00 +15°C° 0 mm 1 m/s 751 mmHg 84%
02:00 +15°C° 0 mm 1 m/s 751 mmHg 86%
03:00 +15°C° 0 mm 1 m/s 750 mmHg 87%
04:00 +14°C° 0 mm 1 m/s 750 mmHg 88%
05:00 +16°C° 0 mm 1 m/s 750 mmHg 84%
06:00 +19°C° 0 mm 1 m/s 750 mmHg 79%
07:00 +20°C° 0 mm 1 m/s 750 mmHg 74%
08:00 +21°C° 0 mm 2 m/s 750 mmHg 70%
09:00 +23°C° 0 mm 2 m/s 750 mmHg 65%
10:00 +24°C° 0 mm 3 m/s 750 mmHg 61%
11:00 +25°C° 0.3 mm 3 m/s 750 mmHg 62%
12:00 +25°C° 0.3 mm 3 m/s 750 mmHg 63%
13:00 +25°C° 0.3 mm 3 m/s 750 mmHg 64%
14:00 +25°C° 1.5 mm 3 m/s 750 mmHg 67%
15:00 +24°C° 1.5 mm 3 m/s 750 mmHg 70%
16:00 +24°C° 1.5 mm 2 m/s 749 mmHg 73%
17:00 +23°C° 0.8 mm 2 m/s 750 mmHg 77%
18:00 +21°C° 0.8 mm 1 m/s 750 mmHg 81%
19:00 +20°C° 0.8 mm 1 m/s 750 mmHg 85%
20:00 +19°C° 0.1 mm 1 m/s 750 mmHg 87%
21:00 +18°C° 0.1 mm 2 m/s 750 mmHg 89%
22:00 +17°C° 0.1 mm 2 m/s 750 mmHg 91%
23:00 +16°C° 0.1 mm 2 m/s 750 mmHg 92%

Après-demain, 17 Juillet, Vendredi

Heure Température Précipitation Vent Pression Humidité
00:00 +16°C° 0.1 mm 2 m/s 750 mmHg 93%
01:00 +16°C° 0.1 mm 2 m/s 750 mmHg 94%
02:00 +16°C° 0 mm 2 m/s 750 mmHg 94%
03:00 +15°C° 0 mm 2 m/s 750 mmHg 94%
04:00 +15°C° 0 mm 2 m/s 750 mmHg 94%
05:00 +16°C° 0.1 mm 2 m/s 750 mmHg 92%
06:00 +17°C° 0.1 mm 2 m/s 750 mmHg 89%
07:00 +18°C° 0.1 mm 2 m/s 751 mmHg 87%
08:00 +19°C° 0.3 mm 2 m/s 751 mmHg 84%
09:00 +21°C° 0.3 mm 1 m/s 750 mmHg 81%
10:00 +22°C° 0.3 mm 1 m/s 750 mmHg 78%
11:00 +22°C° 0.8 mm 1 m/s 750 mmHg 79%
12:00 +22°C° 0.8 mm 1 m/s 750 mmHg 79%
13:00 +23°C° 0.8 mm 2 m/s 750 mmHg 79%
14:00 +21°C° 0.6 mm 2 m/s 750 mmHg 83%
15:00 +20°C° 0.6 mm 2 m/s 750 mmHg 86%
16:00 +19°C° 0.6 mm 2 m/s 750 mmHg 89%
17:00 +19°C° 0 mm 2 m/s 750 mmHg 90%
18:00 +18°C° 0 mm 2 m/s 750 mmHg 91%
19:00 +19°C° 0 mm 1 m/s 750 mmHg 92%
20:00 +18°C° 0 mm 1 m/s 750 mmHg 93%
21:00 +18°C° 0 mm 1 m/s 751 mmHg 93%
22:00 +16°C° 0 mm 1 m/s 751 mmHg 94%
23:00 +16°C° 0 mm 2 m/s 751 mmHg 94%

18 Juillet, Samedi

Heure Température Précipitation Vent Pression Humidité
00:00 +16°C° 0 mm 2 m/s 751 mmHg 94%
01:00 +16°C° 0 mm 2 m/s 751 mmHg 94%
02:00 +16°C° 0.9 mm 2 m/s 751 mmHg 95%
03:00 +16°C° 0.9 mm 2 m/s 751 mmHg 96%
04:00 +16°C° 0.9 mm 2 m/s 750 mmHg 97%
05:00 +16°C° 2.2 mm 1 m/s 751 mmHg 97%
06:00 +16°C° 2.2 mm 1 m/s 751 mmHg 97%
07:00 +16°C° 2.2 mm 1 m/s 751 mmHg 97%
08:00 +18°C° 0.3 mm 1 m/s 751 mmHg 94%
09:00 +19°C° 0.3 mm 1 m/s 751 mmHg 91%
10:00 +18°C° 0.3 mm 0 m/s 751 mmHg 88%
11:00 +20°C° 0.4 mm 1 m/s 751 mmHg 88%
12:00 +20°C° 0.4 mm 1 m/s 751 mmHg 88%
13:00 +20°C° 0.4 mm 1 m/s 751 mmHg 88%
14:00 +21°C° 0 mm 1 m/s 751 mmHg 85%
15:00 +21°C° 0 mm 1 m/s 751 mmHg 82%
16:00 +22°C° 0 mm 1 m/s 751 mmHg 80%
17:00 +21°C° 0 mm 1 m/s 751 mmHg 83%
18:00 +20°C° 0 mm 1 m/s 751 mmHg 87%
19:00 +20°C° 0 mm 1 m/s 751 mmHg 90%
20:00 +19°C° 0 mm 1 m/s 751 mmHg 91%
21:00 +19°C° 0 mm 1 m/s 751 mmHg 91%
22:00 +18°C° 0 mm 1 m/s 752 mmHg 91%
23:00 +16°C° 0.1 mm 0 m/s 751 mmHg 92%

19 Juillet, Dimanche

Heure Température Précipitation Vent Pression Humidité
00:00 +16°C° 0.1 mm 0 m/s 751 mmHg 92%
01:00 +16°C° 0.1 mm 0 m/s 751 mmHg 93%
02:00 +18°C° 0 mm 1 m/s 751 mmHg 93%
03:00 +18°C° 0 mm 1 m/s 751 mmHg 93%
04:00 +18°C° 0 mm 1 m/s 751 mmHg 93%
05:00 +18°C° 0.3 mm 1 m/s 751 mmHg 93%
06:00 +18°C° 0.3 mm 1 m/s 751 mmHg 94%
07:00 +18°C° 0.3 mm 1 m/s 751 mmHg 94%
08:00 +19°C° 0.5 mm 1 m/s 751 mmHg 93%
09:00 +19°C° 0.5 mm 1 m/s 751 mmHg 92%
10:00 +20°C° 0.5 mm 1 m/s 751 mmHg 91%
11:00 +21°C° 0.3 mm 1 m/s 751 mmHg 87%
12:00 +22°C° 0.3 mm 1 m/s 751 mmHg 82%
13:00 +24°C° 0.3 mm 1 m/s 750 mmHg 78%
14:00 +24°C° 0.5 mm 1 m/s 750 mmHg 77%
15:00 +24°C° 0.5 mm 1 m/s 750 mmHg 77%
16:00 +24°C° 0.5 mm 1 m/s 750 mmHg 76%
17:00 +23°C° 0.5 mm 1 m/s 750 mmHg 79%
18:00 +22°C° 0.5 mm 1 m/s 750 mmHg 82%
19:00 +21°C° 0.5 mm 1 m/s 750 mmHg 85%
20:00 +20°C° 0 mm 1 m/s 750 mmHg 87%
21:00 +20°C° 0 mm 1 m/s 750 mmHg 88%
22:00 +19°C° 0 mm 1 m/s 750 mmHg 90%
23:00 +18°C° 0 mm 1 m/s 750 mmHg 91%

20 Juillet, Lundi

Heure Température Précipitation Vent Pression Humidité
00:00 +16°C° 0 mm 0 m/s 750 mmHg 91%
01:00 +16°C° 0 mm 0 m/s 750 mmHg 92%
02:00 +16°C° 0 mm 1 m/s 750 mmHg 93%
03:00 +16°C° 0 mm 1 m/s 750 mmHg 93%
04:00 +16°C° 0 mm 1 m/s 750 mmHg 94%
05:00 +18°C° 0 mm 1 m/s 750 mmHg 92%
06:00 +19°C° 0 mm 1 m/s 750 mmHg 90%
07:00 +20°C° 0 mm 1 m/s 750 mmHg 88%
08:00 +21°C° 0 mm 1 m/s 750 mmHg 83%
09:00 +23°C° 0 mm 1 m/s 750 mmHg 79%
10:00 +24°C° 0 mm 1 m/s 750 mmHg 74%
11:00 +24°C° 0 mm 1 m/s 750 mmHg 72%
12:00 +25°C° 0 mm 2 m/s 750 mmHg 70%
13:00 +26°C° 0 mm 2 m/s 750 mmHg 68%
14:00 +26°C° 0.1 mm 2 m/s 750 mmHg 68%
15:00 +26°C° 0.1 mm 2 m/s 750 mmHg 67%
16:00 +26°C° 0.1 mm 2 m/s 750 mmHg 67%
17:00 +25°C° 0.1 mm 1 m/s 750 mmHg 72%
18:00 +24°C° 0.1 mm 1 m/s 750 mmHg 77%
19:00 +22°C° 0.1 mm 1 m/s 750 mmHg 82%
20:00 +22°C° 0.2 mm 1 m/s 750 mmHg 85%
21:00 +21°C° 0.2 mm 1 m/s 750 mmHg 87%
22:00 +20°C° 0.2 mm 1 m/s 750 mmHg 89%
23:00 +20°C° 0.2 mm 1 m/s 750 mmHg 90%
Voir plus